Location: Bethmale
(42.8681°N, 1.0861°E)
Time: 04:02:43
(UTC+00:00)

Daily predictions for brighter satellites

Satellite Brightness Start Highest point End
(mag) Time Altitude Azimuth Time Altitude Azimuth Time Altitude Azimuth
ATLAS CENTAUR R/B 4.0 00:07:30 18° WSW 00:11:45 61° NNW 00:25:41 10° NE
Cosmos 1825 3.8 00:13:02 25° E 00:13:02 25° E 00:15:54 10° NE
Cosmos 1408 3.3 00:19:18 48° ENE 00:19:18 48° ENE 00:22:23 10° NNE
Cosmos 1812 Rocket 3.9 00:15:14 10° NNW 00:19:25 50° W 00:19:25 50° W
Cosmos 990 Rocket 4.5 00:15:49 10° NNW 00:20:55 54° ENE 00:22:37 37° ESE
SL-16 R/B 2.7 00:19:57 35° WSW 00:22:01 52° WNW 00:27:34 10° NNE
Cosmos 405 Rocket 3.7 00:23:36 36° ENE 00:23:36 36° ENE 00:26:37 10° NNE
Cosmos 2058 4.3 00:24:22 27° E 00:24:34 27° E 00:28:04 10° NNE
USA 229 DEB 3.5 00:22:35 47° SSW 00:24:36 82° ESE 00:31:24 10° NE
USA 229 3.5 00:22:42 47° SSW 00:24:42 81° ESE 00:31:30 10° NE
Cosmos 2237 Rocket 4.3 00:21:28 10° W 00:25:31 20° NW 00:29:34 10° N
X-37B 3.1 00:28:47 17° ENE 00:28:47 17° ENE 00:29:39 10° ENE
Cosmos 2221 4.2 00:23:30 10° NNE 00:27:03 24° ENE 00:28:23 21° ESE
NOSS 3-1 (C) 3.7 00:31:10 33° WSW 00:33:28 57° NW 00:39:37 10° NNE
Cosmos 1898 Rocket 3.9 00:29:04 10° NNW 00:34:14 56° ENE 00:36:11 35° SE
Cosmos 2369 Rocket 2.3 00:30:55 10° NNW 00:36:40 71° ENE 00:38:58 37° SE
Cosmos 1356 4.0 00:37:29 54° N 00:37:29 54° N 00:40:12 10° N
SJ 16-02 2.2 00:36:21 10° NW 00:40:01 37° W 00:40:01 37° W
GP-B 4.1 00:37:29 10° NNW 00:41:29 33° W 00:41:51 33° W
NOSS 2-3 (E) 4.3 00:42:31 38° W 00:43:33 46° NW 00:48:10 10° NNE
NOSS 3-1 (A) 3.2 00:42:42 47° SW 00:44:19 79° NW 00:50:33 10° NE
Cosmos 1825 Rocket 3.9 00:45:41 51° W 00:46:05 53° WNW 00:50:28 10° N
ATLAS 5 CENTAUR R/B 3.2 00:48:04 19° ESE 00:48:04 19° ESE 00:50:40 10° ENE
Cosmos 2263 4.4 00:44:38 10° NNW 00:50:19 66° ENE 00:53:06 30° SE
USA 308 4.0 00:53:27 31° ESE 00:53:27 31° ESE 00:56:32 10° ENE
CZ-4 R/B 3.8 00:48:05 10° NNE 00:52:45 69° ESE 00:53:33 56° SSE
Helios 1B rocket 4.4 00:50:19 10° NE 00:53:16 19° E 00:54:08 18° ESE
Meteor 2-2 Rocket 4.5 00:51:29 10° N 00:57:33 74° E 01:00:06 36° SSE
Helios 1A 3.0 01:00:06 61° SE 01:00:44 76° ENE 01:04:55 10° N
Cosmos 468 Rocket 4.2 01:00:57 46° SW 01:02:17 63° WNW 01:07:29 10° NNE
Cosmos 1606 4.0 00:59:41 10° N 01:03:12 33° ENE 01:04:13 28° ESE
SL-16 R/B 3.3 00:59:52 16° SE 01:04:34 48° ENE 01:10:27 10° N
USA 305 3.2 01:10:32 51° SE 01:10:32 51° SE 01:14:36 10° ENE
USA 290 3.9 01:11:15 25° E 01:11:15 25° E 01:13:40 10° NE
Cosmos 1953 Rocket 4.1 01:10:29 41° W 01:11:02 43° WNW 01:15:15 10° N
Cosmos 858 Rocket 4.5 01:06:37 10° NNW 01:11:57 82° ENE 01:14:06 37° SSE
Cosmos 1092 Rocket 4.4 01:11:05 29° SSE 01:14:01 53° E 01:19:58 10° NNE
Lacrosse 4 Rocket 3.4 01:11:50 10° N 01:15:21 27° NE 01:18:49 10° ESE
Cosmos 2098 Rocket 3.4 01:15:08 44° S 01:16:53 84° E 01:21:29 10° N
Cosmos 1763 Rocket 4.0 01:15:44 35° WSW 01:17:18 46° WNW 01:22:14 10° N
BREEZE-M R/B 2.8 01:18:12 48° SE 01:18:12 48° SE 01:22:13 10° ENE
USA 267 3.7 01:19:19 36° SSW 01:20:17 37° SW 01:26:17 10° WNW
Cosmos 1892 4.5 01:21:02 21° W 01:21:17 21° WNW 01:24:18 10° NNW
Cosmos 1437 Rocket 2.7 01:18:24 10° NNW 01:22:15 64° W 01:22:18 64° WSW
Resurs 1-4 Rocket 2.4 01:17:03 10° NNE 01:22:21 62° ESE 01:24:23 36° SSE
SL-4 R/B 4.4 01:22:02 10° NW 01:24:55 20° N 01:27:40 10° NE
Cosmos 1943 Rocket 3.5 01:25:20 10° NW 01:29:26 22° W 01:29:31 22° WSW
NOSS 2-2 (D) 3.3 01:30:21 52° ESE 01:30:22 52° ESE 01:33:51 10° NE
Cosmos 1842 Rocket 3.5 01:28:03 10° NNW 01:32:22 67° W 01:33:14 52° SSW
USA 306 2.8 01:32:05 58° SSW 01:32:49 76° SE 01:37:04 10° NE
Cosmos 921 Rocket 2.8 01:32:38 56° SSW 01:33:28 87° WNW 01:37:41 10° NNE
NPP 3.9 01:28:10 10° NNE 01:33:32 61° ESE 01:35:57 32° S
ADEOS II 3.2 01:29:05 10° NNE 01:33:54 36° E 01:36:49 20° SSE
Cosmos 1943 3.6 01:33:25 32° WSW 01:35:47 53° WNW 01:41:19 10° NNE
Meteor 2-8 Rocket 4.4 01:29:46 10° NNW 01:35:55 76° W 01:38:53 33° S
FALCON 9 DEB 4.4 01:33:06 10° NW 01:36:22 42° NNE 01:39:37 10° ESE
MOZ.5/SAFIR/RUBIN 5/SL-8 4.0 01:38:05 43° SW 01:39:12 53° W 01:43:52 10° NNW
CZ-2D R/B 2.0 01:35:50 10° NNE 01:41:04 87° ESE 01:43:15 36° SSW
Cosmos 1603 4.4 01:41:52 27° WSW 01:44:33 44° WNW 01:49:57 10° NNE
Cosmos 2151 3.2 01:44:56 36° SSE 01:46:27 61° E 01:50:37 10° NNE
Cosmos 1825 3.8 01:47:48 21° W 01:48:12 21° WNW 01:51:07 10° NNW
IDEFIX/ARIANE 42P 4.3 01:43:52 10° NE 01:48:12 26° E 01:52:17 11° SSE
Cosmos 1076 Rocket 3.5 01:49:45 44° SW 01:50:53 65° W 01:55:07 10° N
AQUA 3.9 01:48:20 10° NNE 01:53:07 75° ESE 01:55:17 32° S
Cosmos 1437 2.5 01:53:23 10° NNW 01:55:51 61° NW 01:55:51 61° NW
Cosmos 540 Rocket 4.3 01:55:00 26° WSW 01:57:11 38° WNW 02:01:57 10° N
Cosmos 1242 Rocket 3.2 01:56:32 10° NNW 01:59:53 38° W 02:00:05 37° WSW
DELTA 2 R/B (1) 3.5 01:57:41 23° WSW 02:01:02 62° S 02:06:31 10° E
Cosmos 2058 4.4 02:00:33 21° W 02:01:27 22° WNW 02:04:42 10° NNW
X-37B 1.0 02:01:03 17° WNW 02:03:19 64° N 02:06:29 10° E
Cosmos 2221 3.6 02:00:55 10° NNW 02:04:33 27° W 02:05:13 26° WSW
Cosmos 841 Rocket 4.3 02:03:07 24° WSW 02:05:30 38° WNW 02:10:18 10° N
BREEZE-M DEB (TANK) 3.8 02:03:36 10° NW 02:05:43 22° N 02:07:40 10° ENE
IRS-1D 4.0 02:02:53 10° NNE 02:07:56 55° E 02:11:14 20° S
NOSS 2-2 (E) 3.9 02:08:02 29° W 02:09:15 41° NW 02:12:49 10° NNE
Cosmos 1656 Rocket 4.5 02:04:50 10° NW 02:09:50 32° WSW 02:11:35 27° SW
Cosmos 2292 Rocket 3.0 02:09:52 37° SSE 02:10:47 56° E 02:13:42 10° NNE
Cosmos 1553 Rocket 4.3 02:05:12 10° N 02:11:29 68° E 02:17:38 10° SSE
GPS 2-04 Rocket1 3.6 02:15:42 28° S 02:15:42 28° S 02:18:57 10° ESE
USA 307 3.3 02:14:11 24° WSW 02:16:35 56° NNW 02:20:47 10° NE
USA 281 4.0 02:10:54 10° SE 02:17:13 52° ENE 02:23:33 10° NNW
Cosmos 1782 3.5 02:14:03 10° N 02:17:59 51° E 02:21:41 11° SSE
Cosmos 2026 Rocket 4.2 02:16:00 25° SSW 02:19:44 61° W 02:26:02 10° N
Cosmos 1271 Rocket 4.3 02:16:24 10° N 02:19:49 33° ENE 02:23:14 10° SE
Cosmos 2369 Rocket 3.8 02:16:29 10° WNW 02:20:01 17° W 02:20:43 17° WSW
NOSS 2-2 (C) 3.9 02:21:26 25° W 02:22:56 39° NW 02:26:25 10° NNE
CZ-4C R/B 4.5 02:21:10 10° SE 02:24:21 37° ENE 02:27:35 10° N
ERBS 2.7 02:24:39 34° S 02:25:38 48° SE 02:28:46 10° ENE
Aureole 3 Rocket 4.1 02:22:32 10° NNW 02:26:20 34° W 02:28:37 23° SW
Cosmos 1633 4.0 02:27:25 21° W 02:28:16 23° WNW 02:31:08 10° NNW
Helios 1B rocket 3.3 02:24:52 10° N 02:28:36 35° WNW 02:30:26 23° WSW
ATLAS 5 CENTAUR R/B 2.3 02:29:34 20° WSW 02:31:51 39° NW 02:36:01 10° NNE
Cosmos 1328 Rocket 4.3 02:27:43 10° N 02:31:59 51° ENE 02:36:15 10° SSE
FALCON 9 DEB 4.4 02:29:20 10° NW 02:32:15 38° NNE 02:35:10 10° E
USA 308 3.7 02:29:31 16° W 02:32:35 45° NNW 02:36:41 10° NE
SL-19 R/B 4.5 02:28:10 10° N 02:33:18 54° WNW 02:36:50 21° SW
Cosmos 2298 Rocket 4.0 02:29:29 10° NNW 02:34:49 73° WSW 02:40:07 10° S
SeaSat 1 3.1 02:32:33 10° NE 02:37:20 48° ESE 02:41:19 14° S
ADEOS Rocket 3.4 02:32:32 10° S 02:39:51 63° WSW 02:46:31 10° NNW
Meteor 2-21 4.4 02:36:15 16° S 02:41:16 83° W 02:47:31 10° N
FALCON 9 DEB 4.1 02:39:34 10° NW 02:42:33 44° NNE 02:45:32 10° ESE
Cosmos 1933 3.9 02:41:20 10° NNW 02:45:10 40° W 02:47:29 20° SSW
USA 290 4.4 02:44:01 13° W 02:45:22 16° WNW 02:47:28 10° NNW
IRIDIUM 104 4.4 02:40:29 10° N 02:45:39 64° W 02:50:07 14° SSW
Cosmos 1833 Rocket 4.2 02:41:28 10° SSE 02:46:19 31° ESE 02:51:13 10° NE
Cosmos 2150 Rocket 4.0 02:41:13 10° NNW 02:46:20 61° WSW 02:51:31 10° S
SL-16 R/B 3.5 02:44:57 18° SW 02:48:21 29° W 02:53:37 10° NW
Meteor 1-28 Rocket 3.3 02:45:49 17° S 02:48:36 55° W 02:52:22 10° NNW
DELTA 2 DEB (DPAF) 4.2 02:45:47 13° S 02:49:35 56° W 02:53:58 10° NNW
Tianhe-1 3.1 02:49:34 15° S 02:50:30 16° SSE 02:52:36 10° ESE
USA 305 4.2 02:46:39 10° W 02:50:32 34° NNW 02:54:27 10° NE
IRS-P3 4.4 02:47:16 10° NNE 02:52:35 66° ESE 02:57:52 10° S
Lacrosse 4 Rocket 2.2 02:50:27 10° NW 02:53:58 28° WSW 02:56:19 16° SSW
Cosmos 1125 Rocket 3.5 02:49:03 10° NNW 02:54:15 64° WSW 02:59:28 10° S
Cosmos 2266 Rocket 4.0 02:49:21 10° S 02:55:28 81° E 03:01:32 10° N
Cosmos 1151 Rocket 3.0 02:51:25 10° NNW 02:55:39 65° W 02:59:50 10° S
Meteor 1-29 4.4 02:55:52 10° NNW 02:58:41 24° WNW 03:00:31 16° WSW
CZ-4B R/B 4.1 02:55:09 10° NNE 03:00:22 58° ESE 03:05:27 10° S
CZ-4C R/B 2.2 02:56:32 15° SSW 03:00:28 64° ESE 03:06:05 10° NE
ARIANE 5 R/B 2.9 02:56:32 10° NNE 03:01:30 62° ESE 03:06:26 10° S
Resurs 1-4 Rocket 3.8 02:57:59 10° NNW 03:01:40 19° WNW 03:05:21 10° WSW
Cosmos 1766 Rocket 3.9 02:59:08 16° SSW 03:02:34 53° WNW 03:06:58 10° N
Cosmos 1515 Rocket 4.1 02:58:45 10° N 03:03:09 63° E 03:07:33 10° SSE
Cosmos 1408 Rocket 3.7 03:00:45 10° S 03:05:11 82° E 03:09:41 10° N
SL-4 R/B 3.6 03:01:59 10° NW 03:05:15 32° NNE 03:08:23 10° E
Cosmos 2082 Rocket 4.2 03:04:56 10° SSE 03:09:17 23° ESE 03:13:37 10° NE
COSMOS 2441 4.4 03:04:41 10° NNE 03:09:33 86° ESE 03:14:21 10° SSW
CENTAUR R/B 4.0 03:02:30 10° NNW 03:10:30 58° NE 03:19:15 10° SE
Cosmos 1862 3.3 03:08:09 10° S 03:12:08 80° W 03:16:13 10° N
FALCON 9 DEB 4.1 03:10:15 10° WNW 03:13:06 25° SW 03:15:57 10° S
ADEOS II 3.2 03:08:56 10° N 03:13:28 31° WNW 03:17:45 11° SW
Okean 3 Rocket 4.2 03:09:58 14° SW 03:13:29 41° WNW 03:17:39 10° N
Lacrosse 5 rocket 2.6 03:10:50 10° NW 03:14:16 41° NE 03:17:49 10° ESE
CZ-2D R/B 4.1 03:17:55 10° NNW 03:20:23 14° WNW 03:22:51 10° W
ASTEX 1 3.8 03:18:35 10° SSW 03:23:18 45° W 03:28:03 10° NNW
Cosmos 1655 Rocket 4.2 03:17:25 10° SSW 03:23:28 55° WNW 03:29:36 10° N
IDEFIX/ARIANE 42P 3.2 03:23:01 10° N 03:27:54 41° WNW 03:32:45 10° SW
COSMOS 2406 3.5 03:26:59 10° SSW 03:32:36 71° ESE 03:38:15 10° NNE
PAYLOAD A 4.3 03:32:50 10° NNE 03:37:53 72° ESE 03:43:06 10° S
deb Kosmos-1763 4.3 03:34:46 10° SW 03:38:12 50° WNW 03:41:39 10° N
CZ-2D R/B 3.5 03:35:17 10° N 03:39:28 73° WNW 03:43:30 10° SSW
Spot 4 Rocket 4.1 03:34:42 10° NNE 03:39:52 84° ESE 03:45:00 10° SSW
X-37B 1.0 03:36:53 10° W 03:39:54 41° SSW 03:42:55 10° SE
DELTA 2 R/B (1) 3.8 03:41:50 10° W 03:47:12 51° SSW 03:52:34 10° ESE
